Location: Alto Pass Reservoir
(37.5801°N, 89.3084°W)
Time: 17:15:01
(UTC+00:00)

Cosmos 2298 Rocket - Pass Details

Date: 11 July 2022
Orbit: 775 x 784 km, 74.0° (Epoch: 18 August)

Event Time Altitude Azimuth Distance (km) Brightness Sun altitude
Rises 08:30:26 0° 335° (NNW) 3,278 7.6 -21.0°
Reaches altitude 10° 08:32:55 10° 329° (NNW) 2,345 6.8 -20.7°
Maximum altitude 08:37:58 46° 258° (WSW) 1,049 4.3 -20.1°
Enters shadow 08:39:03 40° 225° (SW) 1,139 4.4 -19.9°
